sat.trackr.live / text

‹ back to catalog

STARLINK-2385

NORAD 47804 · 2021-018T

PAYLOAD ACTIVE UNKNOWN

§ Identity

Operator
Country
US
Launch date
2021-03-11
Launch site
AFETR
Launch vehicle
Mass (kg)
RCS (m²)

Purposes: comms

External: N2YO · Heavens-Above · Gunter

§ Orbital elements

Epoch: 2026-09-20T00:52:36.147072Z

Period
93.92 min
Inclination
53.1590°
Eccentricity
0.0001353
Mean motion
15.33157776 rev/d
Perigee alt
465.5 km
Apogee alt
467.3 km
Semi-major
6,844.5 km
B*
1.0242e-3
RAAN
45.6018°
Arg perigee
4.3508°
Mean anomaly
355.7505°
Rev number
30,667

§ Raw data

STARLINK-23851 47804U 21018T   26263.03652948  .00033046  00000+0  10242-2 0  99972 47804  53.1590  45.6018 0001353   4.3508 355.7505 15.33157776306671

JSON: /api/v1/satellites/47804 · /tle

For live sub-satellite position, see the globe view (requires WebGL).

§ Visibility from observer

Set your observer location to see the next 7 days of passes ≥ 10°. The values pass through the URL so the page stays shareable.

No JS? Fill the form by hand. The geolocation button needs JavaScript.